#timestamp,LO_Frequency,Hit,StdDev 
1622246415.3,286047000.8,N
1622246435.1,286046999.8,N
1622246455.9,286047000.3,N
1622246475.7,286047000.6,N
1622246495.5,286047001.7,N
1622246515.4,286047003.9,N
1622246535.2,286047002.4,N
1622246555.1,286046998.6,N
1622246556.0,286046998.6,N
1622246575.8,286047001.2,N
1622246595.6,286046997.0,N
1622246615.5,286046995.0,N
1622246635.3,286046996.2,N
1622246655.2,286046997.6,N
1622246675.9,286046999.2,N
1622246695.7,286046994.9,N
1622246715.6,286046998.0,N
1622246735.4,286046998.3,N
1622246755.3,286046996.6,N
1622246775.1,286046998.4,N
1622246776.0,286046998.4,N
1622246795.8,286046999.7,N
1622246815.7,286047002.3,N
1622246835.5,286047001.3,N
1622246855.3,286046999.7,N
1622246875.2,286047002.3,N
1622246895.0,286047000.0,N
1622246895.9,286047000.0,N
1622246915.8,286046998.3,N
1622246935.6,286046998.4,N
1622246955.4,286046996.7,N
1622246975.3,286046995.1,N
1622246995.1,286046997.3,N
1622247015.9,286046999.5,N
1622247035.7,286046998.6,N
1622247055.5,286047001.1,N
1622247075.4,286046999.1,N
1622247095.2,286046997.3,N
1622247115.0,286046997.1,N
1622247115.9,286046997.1,N
1622247135.8,286046993.7,Y
1622247155.6,286046995.0,P
1622247175.5,286046999.5,N
1622247195.3,286046998.5,N
1622247215.1,286046999.3,N
1622247235.9,286046999.4,N
1622247255.7,286046998.8,N
1622247275.5,286046999.2,N
1622247295.4,286047001.1,N
1622247315.2,286047000.7,N
1622247335.1,286046998.7,N
1622247336.0,286046998.7,N
1622247355.8,286046998.5,N
1622247375.6,286046999.4,N
1622247395.5,286046997.4,N
1622247415.3,286046997.4,N
1622247435.1,286046997.8,N
1622247455.9,286046997.9,N
1622247475.7,286046995.7,Y
1622247495.6,286046997.8,P
1622247515.4,286046995.2,P
1622247535.2,286046994.9,P
1622247555.1,286046995.8,N
1622247556.0,286046995.8,N
1622247575.8,286046993.9,Y
1622247595.7,286047000.8,P
1622247615.5,286047000.3,N
1622247635.3,286046998.3,N
1622247655.2,286046998.9,N
1622247675.9,286046996.6,N
1622247695.7,286046996.9,N
1622247715.6,286046999.5,N
1622247735.4,286046999.4,N
1622247755.2,286046999.2,N
1622247775.1,286046996.5,N
1622247776.0,286046996.5,N
1622247795.8,286046996.6,N
1622247815.7,286046999.1,N
1622247835.5,286046998.9,N
1622247855.3,286046998.8,N
1622247875.2,286046999.0,N
1622247895.0,286046998.9,N
1622247895.9,286046998.9,N
1622247915.8,286047000.9,N
1622247935.6,286047000.5,N
1622247955.4,286046999.7,N
1622247975.3,286046999.7,N
1622247995.1,286046999.4,N
1622248015.9,286046997.2,N
1622248035.7,286046995.0,Y
1622248055.5,286046999.6,P
1622248075.4,286046996.8,P
1622248095.2,286046997.4,N
1622248115.1,286046996.9,N
1622248116.0,286046996.9,N
1622248135.8,286047001.2,N
1622248155.6,286046999.0,N
1622248175.5,286046999.3,N
1622248195.3,286046999.4,N
1622248215.1,286046998.5,N
1622248235.9,286046998.6,N
1622248255.7,286046998.8,N
1622248275.6,286046997.1,N
1622248295.4,286046997.0,N
1622248315.2,286046997.5,N
1622248335.1,286046994.9,Y
1622248336.0,286046994.9,P
1622248355.8,286046998.7,N
1622248375.7,286047000.9,N
1622248395.5,286047002.6,N
1622248415.3,286047001.7,N
1622248435.2,286047003.4,N
1622248455.0,286047004.4,N
1622248455.9,286047004.4,N
1622248475.7,286047007.2,N
1622248495.6,286047005.9,N
1622248515.4,286047001.9,N
1622248535.3,286047002.8,N
1622248555.1,286047003.8,N
1622248556.0,286047003.8,N
1622248575.8,286047001.8,N
1622248625.7,286047002.7,E
1622248635.6,286047000.2,N
1622248655.5,286047000.3,P
1622248675.3,286047002.5,P
1622248695.1,286047000.2,N
1622248715.9,286046998.6,N
1622248735.7,286047000.2,N
1622248755.6,286047002.3,N
1622248775.4,286046996.6,N
1622248795.2,286046999.6,N
1622248815.1,286046998.2,N
1622248816.0,286046998.2,N
1622248835.8,286047002.3,N
1622248855.6,286047002.1,N
1622248875.5,286047001.8,N
1622248895.3,286047003.4,N
1622248915.2,286047001.8,N
1622248935.9,286047002.6,N
1622248955.7,286047002.4,N
1622248975.6,286047002.5,N
1622248995.4,286047002.1,N
1622249015.2,286047004.2,N
1622249035.1,286047003.5,N
1622249036.0,286047003.5,N
1622249055.8,286047004.7,N
1622249075.7,286047005.3,N
1622249095.5,286047005.8,N
1622249115.3,286047006.8,Y
1622249135.2,286047006.0,P
1622249155.0,286047001.6,N
1622249155.9,286047001.6,N
1622249175.7,286047004.4,N
1622249195.6,286047002.2,N
1622249215.4,286047001.9,N
1622249235.3,286047005.5,Y
1622249255.1,286046999.9,P
1622249275.8,286046998.5,N
1622249295.7,286046998.8,N
1622249315.5,286047000.8,N
1622249335.3,286047001.7,N
1622249355.2,286046999.8,N
1622249375.0,286046999.2,N
1622249375.9,286046999.2,N
1622249395.8,286046998.9,N
1622249415.6,286047000.5,N
1622249435.4,286047002.4,N
1622249455.3,286046998.8,N
1622249475.1,286046997.8,N
1622249495.9,286046995.3,Y
1622249515.7,286047000.0,P
1622249535.5,286047001.5,P
1622249555.4,286047001.7,N
1622249575.2,286047006.0,Y
1622249595.1,286047003.6,P
1622249596.0,286047003.6,N
1622249615.8,286047004.4,P
1622249635.6,286047002.2,N
1622249655.5,286047002.4,N
1622249675.3,286047004.4,Y
1622249695.2,286047002.1,P
1622249715.9,286046998.2,P
1622249735.7,286046999.1,N
1622249755.6,286047000.9,N
1622249775.4,286047001.1,N
1622249795.2,286046999.3,N
1622249815.1,286046998.1,N
1622249816.0,286046998.1,N
1622249835.8,286047001.2,N
1622249855.7,286046998.9,N
1622249875.5,286046997.6,N
1622249895.3,286046993.4,Y
1622249915.2,286046995.0,P
1622249935.0,286046995.2,N
1622249935.9,286046995.2,N
1622249955.8,286046997.9,N
1622249975.6,286046999.1,N
1622249995.4,286046996.7,N
